Time,TemperatureF,DewpointF,PressureIn,WindDirection,WindDirectionDegrees,WindSpeedMPH,WindSpeedGustMPH,Humidity,HourlyPrecipIn,Conditions,Clouds,dailyrainin,SoftwareType,DateUTC
2013-06-06 00:03:00,59.0,55.0,30.14,SE,135,0.0,12.0,87,0.00,,,0.00,,2013-06-06 04:03:00,
2013-06-06 00:13:00,59.0,55.0,30.14,SE,135,0.0,12.0,87,0.00,,,0.00,,2013-06-06 04:13:00,
2013-06-06 00:23:00,59.0,56.0,30.15,SE,136,0.0,12.0,91,0.00,,,0.00,,2013-06-06 04:23:00,
2013-06-06 00:33:00,59.0,57.0,30.14,SE,136,0.0,2.0,93,0.00,,,0.00,,2013-06-06 04:33:00,
2013-06-06 01:02:00,58.0,56.0,30.14,SE,135,0.0,2.0,93,0.00,,,0.00,,2013-06-06 05:02:00,
2013-06-06 01:12:00,57.0,55.0,30.14,SE,134,0.0,2.0,94,0.00,,,0.00,,2013-06-06 05:12:00,
2013-06-06 01:23:00,57.0,55.0,30.14,SE,134,0.0,2.0,94,0.00,,,0.00,,2013-06-06 05:23:00,
2013-06-06 01:32:00,57.0,56.0,30.13,SE,136,0.0,2.0,95,0.00,,,0.00,,2013-06-06 05:32:00,
2013-06-06 01:42:00,57.0,56.0,30.13,SE,136,0.0,2.0,95,0.00,,,0.00,,2013-06-06 05:42:00,
2013-06-06 01:52:00,56.0,55.0,30.13,SE,135,0.0,2.0,96,0.00,,,0.00,,2013-06-06 05:52:00,
2013-06-06 02:02:00,56.0,55.0,30.13,SE,135,0.0,2.0,96,0.00,,,0.00,,2013-06-06 06:02:00,
2013-06-06 02:12:00,56.0,55.0,30.13,SE,135,0.0,2.0,96,0.00,,,0.00,,2013-06-06 06:12:00,
2013-06-06 02:22:00,56.0,55.0,30.13,SE,135,0.0,2.0,96,0.00,,,0.00,,2013-06-06 06:22:00,
2013-06-06 02:33:00,55.0,55.0,30.14,WNW,299,0.0,5.0,100,0.00,,,0.00,,2013-06-06 06:33:00,
2013-06-06 02:42:00,55.0,55.0,30.14,WNW,299,0.0,5.0,100,0.00,,,0.00,,2013-06-06 06:42:00,
2013-06-06 02:52:00,55.0,55.0,30.14,WNW,299,0.0,5.0,100,0.00,,,0.00,,2013-06-06 06:52:00,
2013-06-06 03:02:00,55.0,55.0,30.14,WNW,299,0.0,5.0,100,0.00,,,0.00,,2013-06-06 07:02:00,
2013-06-06 03:12:00,55.0,55.0,30.14,WNW,299,0.0,5.0,100,0.00,,,0.00,,2013-06-06 07:12:00,
2013-06-06 03:22:00,55.0,55.0,30.14,NW,315,1.0,5.0,100,0.00,,,0.00,,2013-06-06 07:22:00,
2013-06-06 03:32:00,55.0,55.0,30.14,NW,319,0.0,5.0,100,0.00,,,0.00,,2013-06-06 07:32:00,
2013-06-06 03:42:00,55.0,55.0,30.14,NW,319,0.0,5.0,100,0.00,,,0.00,,2013-06-06 07:42:00,
2013-06-06 03:52:00,55.0,55.0,30.14,NW,319,0.0,5.0,100,0.00,,,0.00,,2013-06-06 07:52:00,
2013-06-06 04:02:00,55.0,55.0,30.14,NW,319,0.0,5.0,100,0.00,,,0.00,,2013-06-06 08:02:00,
2013-06-06 04:12:00,55.0,55.0,30.14,NW,319,0.0,5.0,100,0.00,,,0.00,,2013-06-06 08:12:00,
2013-06-06 04:22:00,55.0,55.0,30.14,NW,319,0.0,5.0,100,0.00,,,0.00,,2013-06-06 08:22:00,
2013-06-06 04:32:00,55.0,55.0,30.14,NW,319,0.0,5.0,100,0.00,,,0.00,,2013-06-06 08:32:00,
2013-06-06 04:42:00,55.0,55.0,30.14,NW,319,0.0,5.0,100,0.00,,,0.00,,2013-06-06 08:42:00,
2013-06-06 04:52:00,55.0,55.0,30.14,NW,319,0.0,5.0,100,0.00,,,0.00,,2013-06-06 08:52:00,
2013-06-06 05:02:00,56.0,56.0,30.14,NW,318,0.0,5.0,100,0.00,,,0.00,,2013-06-06 09:02:00,
2013-06-06 05:12:00,56.0,56.0,30.14,NW,318,0.0,5.0,100,0.00,,,0.00,,2013-06-06 09:12:00,
2013-06-06 05:22:00,56.0,56.0,30.14,NW,318,0.0,5.0,100,0.00,,,0.00,,2013-06-06 09:22:00,
2013-06-06 05:33:00,57.0,57.0,30.14,NW,318,0.0,5.0,100,0.00,,,0.00,,2013-06-06 09:33:00,
2013-06-06 05:43:00,57.0,57.0,30.14,NW,318,0.0,5.0,100,0.00,,,0.00,,2013-06-06 09:43:00,
2013-06-06 05:53:00,57.0,57.0,30.14,NW,318,0.0,5.0,100,0.00,,,0.00,,2013-06-06 09:53:00,
2013-06-06 06:03:00,56.0,56.0,30.13,NW,318,0.0,5.0,100,0.00,,,0.00,,2013-06-06 10:03:00,
2013-06-06 06:12:00,57.0,57.0,30.13,NW,318,0.0,5.0,100,0.00,,,0.00,,2013-06-06 10:12:00,
2013-06-06 06:23:00,57.0,57.0,30.13,NW,318,0.0,5.0,100,0.00,,,0.00,,2013-06-06 10:23:00,
2013-06-06 06:33:00,59.0,59.0,30.13,NNE,32,1.0,5.0,100,0.00,,,0.00,,2013-06-06 10:33:00,
2013-06-06 06:42:00,59.0,59.0,30.14,NE,34,0.0,5.0,100,0.00,,,0.00,,2013-06-06 10:42:00,
2013-06-06 06:52:00,59.0,59.0,30.14,NE,34,0.0,5.0,100,0.00,,,0.00,,2013-06-06 10:52:00,
2013-06-06 07:02:00,60.0,60.0,30.14,ENE,65,1.0,5.0,100,0.00,,,0.00,,2013-06-06 11:02:00,
2013-06-06 07:12:00,60.0,60.0,30.14,ENE,65,1.0,5.0,100,0.00,,,0.00,,2013-06-06 11:12:00,
2013-06-06 07:22:00,61.0,61.0,30.14,ENE,72,2.0,5.0,100,0.00,,,0.00,,2013-06-06 11:22:00,
2013-06-06 07:32:00,62.0,62.0,30.14,ENE,61,1.0,5.0,100,0.00,,,0.00,,2013-06-06 11:32:00,
2013-06-06 07:42:00,62.0,62.0,30.14,ENE,61,1.0,5.0,100,0.00,,,0.00,,2013-06-06 11:42:00,
2013-06-06 07:52:00,62.0,62.0,30.13,East,82,2.0,5.0,100,0.00,,,0.00,,2013-06-06 11:52:00,
2013-06-06 08:03:00,63.0,62.0,30.14,NE,40,2.0,5.0,98,0.00,,,0.00,,2013-06-06 12:03:00,
2013-06-06 08:12:00,63.0,62.0,30.14,NE,40,2.0,5.0,98,0.00,,,0.00,,2013-06-06 12:12:00,
2013-06-06 08:23:00,64.0,64.0,30.14,East,79,1.0,5.0,99,0.00,,,0.00,,2013-06-06 12:23:00,
2013-06-06 08:33:00,64.0,63.0,30.13,East,80,2.0,7.0,96,0.00,,,0.00,,2013-06-06 12:33:00,
2013-06-06 08:43:00,65.0,63.0,30.13,ENE,62,2.0,7.0,94,0.00,,,0.00,,2013-06-06 12:43:00,
2013-06-06 08:52:00,65.0,63.0,30.13,ENE,62,2.0,7.0,94,0.00,,,0.00,,2013-06-06 12:52:00,
2013-06-06 09:03:00,65.0,63.0,30.13,SE,125,1.0,7.0,92,0.00,,,0.00,,2013-06-06 13:03:00,
2013-06-06 09:13:00,65.0,63.0,30.13,ESE,114,3.0,7.0,92,0.00,,,0.00,,2013-06-06 13:13:00,
2013-06-06 09:23:00,65.0,63.0,30.13,ESE,114,3.0,7.0,92,0.00,,,0.00,,2013-06-06 13:23:00,
2013-06-06 09:33:00,66.0,63.0,30.12,ESE,109,1.0,7.0,89,0.00,,,0.00,,2013-06-06 13:33:00,
2013-06-06 09:43:00,66.0,63.0,30.13,SE,132,2.0,10.0,90,0.00,,,0.00,,2013-06-06 13:43:00,
2013-06-06 09:52:00,66.0,63.0,30.13,SE,132,2.0,10.0,90,0.00,,,0.00,,2013-06-06 13:52:00,
2013-06-06 10:03:00,68.0,64.0,30.12,ESE,117,2.0,10.0,88,0.00,,,0.00,,2013-06-06 14:03:00,
2013-06-06 10:13:00,68.0,64.0,30.12,SE,126,2.0,10.0,88,0.00,,,0.00,,2013-06-06 14:13:00,
2013-06-06 10:23:00,68.0,64.0,30.12,SE,126,2.0,10.0,88,0.00,,,0.00,,2013-06-06 14:23:00,
2013-06-06 10:33:00,67.0,64.0,30.12,SE,144,3.0,10.0,90,0.00,,,0.00,,2013-06-06 14:33:00,
2013-06-06 10:43:00,67.0,64.0,30.12,SE,144,3.0,10.0,90,0.00,,,0.00,,2013-06-06 14:43:00,
2013-06-06 10:52:00,67.0,64.0,30.12,South,184,3.0,10.0,89,0.00,,,0.00,,2013-06-06 14:52:00,
2013-06-06 11:03:00,68.0,64.0,30.12,ENE,65,2.0,10.0,86,0.00,,,0.00,,2013-06-06 15:03:00,
2013-06-06 11:13:00,69.0,64.0,30.11,SE,128,3.0,10.0,84,0.00,,,0.00,,2013-06-06 15:13:00,
2013-06-06 11:23:00,69.0,64.0,30.11,SE,128,3.0,10.0,84,0.00,,,0.00,,2013-06-06 15:23:00,
2013-06-06 11:33:00,68.0,64.0,30.12,ESE,109,3.0,10.0,86,0.00,,,0.00,,2013-06-06 15:33:00,
2013-06-06 11:43:00,68.0,64.0,30.12,ESE,109,3.0,10.0,86,0.00,,,0.00,,2013-06-06 15:43:00,
2013-06-06 11:53:00,67.0,62.0,30.12,East,90,6.0,10.0,85,0.00,,,0.00,,2013-06-06 15:53:00,
2013-06-06 12:03:00,68.0,62.0,30.11,East,96,6.0,12.0,80,0.00,,,0.00,,2013-06-06 16:03:00,
2013-06-06 12:13:00,68.0,62.0,30.11,East,96,6.0,12.0,80,0.00,,,0.00,,2013-06-06 16:13:00,
2013-06-06 12:23:00,67.0,62.0,30.11,NE,51,5.0,12.0,83,0.00,,,0.00,,2013-06-06 16:23:00,
2013-06-06 12:33:00,66.0,63.0,30.11,East,94,3.0,13.0,89,0.00,,,0.00,,2013-06-06 16:33:00,
2013-06-06 12:44:00,66.0,63.0,30.11,East,94,3.0,13.0,89,0.00,,,0.00,,2013-06-06 16:44:00,
2013-06-06 12:52:00,67.0,62.0,30.10,SE,127,5.0,14.0,85,0.00,,,0.00,,2013-06-06 16:52:00,
2013-06-06 13:03:00,66.0,63.0,30.10,ESE,103,2.0,14.0,90,0.00,,,0.00,,2013-06-06 17:03:00,
2013-06-06 13:13:00,66.0,62.0,30.10,East,94,3.0,14.0,88,0.00,,,0.00,,2013-06-06 17:13:00,
2013-06-06 13:23:00,66.0,62.0,30.10,East,94,3.0,14.0,88,0.00,,,0.00,,2013-06-06 17:23:00,
2013-06-06 13:33:00,67.0,60.0,30.09,East,95,2.0,14.0,78,0.00,,,0.00,,2013-06-06 17:33:00,
2013-06-06 13:43:00,67.0,60.0,30.09,East,95,2.0,14.0,78,0.00,,,0.00,,2013-06-06 17:43:00,
2013-06-06 13:52:00,68.0,59.0,30.09,ESE,119,2.0,14.0,72,0.00,,,0.00,,2013-06-06 17:52:00,
2013-06-06 14:03:00,69.0,56.0,30.09,East,100,1.0,14.0,64,0.00,,,0.00,,2013-06-06 18:03:00,
2013-06-06 14:13:00,69.0,56.0,30.09,East,100,1.0,14.0,64,0.00,,,0.00,,2013-06-06 18:13:00,
2013-06-06 14:23:00,70.0,55.0,30.09,East,92,2.0,14.0,59,0.00,,,0.00,,2013-06-06 18:23:00,
2013-06-06 14:33:00,70.0,55.0,30.09,SE,134,1.0,14.0,59,0.00,,,0.00,,2013-06-06 18:33:00,
2013-06-06 14:43:00,70.0,55.0,30.09,SE,134,1.0,14.0,59,0.00,,,0.00,,2013-06-06 18:43:00,
2013-06-06 14:53:00,70.0,52.0,30.08,SSE,162,3.0,14.0,52,0.00,,,0.00,,2013-06-06 18:53:00,
2013-06-06 15:03:00,70.0,53.0,30.09,East,93,2.0,14.0,55,0.00,,,0.00,,2013-06-06 19:03:00,
2013-06-06 15:13:00,70.0,54.0,30.09,SE,130,1.0,14.0,57,0.00,,,0.00,,2013-06-06 19:13:00,
2013-06-06 15:23:00,70.0,54.0,30.09,SE,130,1.0,14.0,57,0.00,,,0.00,,2013-06-06 19:23:00,
2013-06-06 15:43:00,69.0,53.0,30.09,SE,145,2.0,14.0,57,0.00,,,0.00,,2013-06-06 19:43:00,
2013-06-06 15:52:00,69.0,54.0,30.08,East,95,1.0,14.0,58,0.00,,,0.00,,2013-06-06 19:52:00,
2013-06-06 16:03:00,68.0,54.0,30.07,East,81,2.0,14.0,61,0.00,,,0.00,,2013-06-06 20:03:00,
2013-06-06 16:13:00,68.0,54.0,30.07,East,81,2.0,14.0,61,0.00,,,0.00,,2013-06-06 20:13:00,
2013-06-06 16:23:00,68.0,54.0,30.07,SE,141,0.0,14.0,61,0.00,,,0.00,,2013-06-06 20:23:00,
2013-06-06 16:33:00,68.0,53.0,30.06,ENE,71,1.0,14.0,59,0.00,,,0.00,,2013-06-06 20:33:00,
2013-06-06 16:42:00,68.0,53.0,30.06,ENE,71,1.0,14.0,59,0.00,,,0.00,,2013-06-06 20:42:00,
2013-06-06 16:53:00,67.0,54.0,30.06,ESE,107,2.0,14.0,62,0.00,,,0.00,,2013-06-06 20:53:00,
2013-06-06 17:03:00,67.0,54.0,30.06,SSE,152,0.0,14.0,63,0.00,,,0.00,,2013-06-06 21:03:00,
2013-06-06 17:13:00,67.0,55.0,30.06,ESE,106,1.0,14.0,65,0.00,,,0.00,,2013-06-06 21:13:00,
2013-06-06 17:23:00,67.0,55.0,30.06,ESE,106,1.0,14.0,65,0.00,,,0.00,,2013-06-06 21:23:00,
2013-06-06 17:33:00,67.0,55.0,30.07,ESE,121,1.0,14.0,65,0.00,,,0.00,,2013-06-06 21:33:00,
2013-06-06 17:43:00,67.0,55.0,30.07,ESE,121,1.0,14.0,65,0.00,,,0.00,,2013-06-06 21:43:00,
2013-06-06 17:53:00,67.0,55.0,30.07,ESE,121,1.0,14.0,65,0.00,,,0.00,,2013-06-06 21:53:00,
2013-06-06 18:03:00,66.0,56.0,30.06,ESE,106,1.0,14.0,71,0.00,,,0.00,,2013-06-06 22:03:00,
2013-06-06 18:13:00,66.0,56.0,30.06,ESE,106,1.0,14.0,71,0.00,,,0.00,,2013-06-06 22:13:00,
2013-06-06 18:23:00,66.0,56.0,30.06,ESE,106,1.0,14.0,71,0.00,,,0.00,,2013-06-06 22:23:00,
2013-06-06 18:33:00,66.0,59.0,30.05,ESE,103,1.0,14.0,79,0.00,,,0.00,,2013-06-06 22:33:00,
2013-06-06 18:43:00,66.0,59.0,30.05,ESE,103,1.0,14.0,79,0.00,,,0.00,,2013-06-06 22:43:00,
2013-06-06 18:53:00,66.0,61.0,30.05,ESE,112,1.0,14.0,84,0.00,,,0.00,,2013-06-06 22:53:00,
2013-06-06 19:03:00,65.0,62.0,30.05,ESE,103,2.0,14.0,91,0.00,,,0.00,,2013-06-06 23:03:00,
2013-06-06 19:22:00,65.0,63.0,30.05,ENE,78,1.0,14.0,93,0.00,,,0.00,,2013-06-06 23:22:00,
2013-06-06 19:33:00,64.0,63.0,30.05,ENE,76,2.0,14.0,95,0.00,,,0.00,,2013-06-06 23:33:00,
2013-06-06 19:43:00,64.0,63.0,30.05,ENE,76,2.0,14.0,95,0.00,,,0.00,,2013-06-06 23:43:00,
2013-06-06 19:52:00,64.0,63.0,30.05,ESE,116,1.0,14.0,96,0.00,,,0.00,,2013-06-06 23:52:00,
2013-06-06 20:02:00,64.0,63.0,30.04,SE,134,2.0,14.0,96,0.00,,,0.00,,2013-06-07 00:02:00,
2013-06-06 20:12:00,64.0,63.0,30.04,SE,134,2.0,14.0,96,0.00,,,0.00,,2013-06-07 00:12:00,
2013-06-06 20:22:00,64.0,63.0,30.04,SE,134,2.0,14.0,96,0.00,,,0.00,,2013-06-07 00:22:00,
2013-06-06 20:32:00,64.0,63.0,30.04,ESE,111,2.0,14.0,96,0.00,,,0.00,,2013-06-07 00:32:00,
2013-06-06 20:43:00,64.0,63.0,30.04,ESE,111,2.0,14.0,96,0.00,,,0.00,,2013-06-07 00:43:00,
2013-06-06 20:52:00,64.0,63.0,30.04,SSE,150,2.0,14.0,97,0.00,,,0.00,,2013-06-07 00:52:00,
2013-06-06 21:03:00,64.0,63.0,30.04,ENE,78,1.0,14.0,98,0.00,,,0.00,,2013-06-07 01:03:00,
2013-06-06 21:12:00,63.0,63.0,30.04,East,86,2.0,14.0,99,0.00,,,0.00,,2013-06-07 01:12:00,
2013-06-06 21:22:00,63.0,63.0,30.04,East,86,2.0,14.0,99,0.00,,,0.00,,2013-06-07 01:22:00,
2013-06-06 21:32:00,63.0,63.0,30.04,East,89,1.0,14.0,99,0.00,,,0.00,,2013-06-07 01:32:00,
2013-06-06 21:42:00,63.0,63.0,30.04,East,89,1.0,14.0,99,0.00,,,0.00,,2013-06-07 01:42:00,
2013-06-06 21:52:00,63.0,63.0,30.04,ENE,76,2.0,14.0,100,0.00,,,0.00,,2013-06-07 01:52:00,
2013-06-06 22:02:00,63.0,63.0,30.03,East,83,2.0,14.0,100,0.00,,,0.00,,2013-06-07 02:02:00,
2013-06-06 22:12:00,63.0,63.0,30.03,East,83,2.0,14.0,100,0.00,,,0.00,,2013-06-07 02:12:00,
2013-06-06 22:22:00,63.0,63.0,30.03,East,83,2.0,14.0,100,0.00,,,0.00,,2013-06-07 02:22:00,
2013-06-06 22:32:00,63.0,63.0,30.03,SSE,165,3.0,14.0,100,0.00,,,0.00,,2013-06-07 02:32:00,
2013-06-06 22:42:00,63.0,63.0,30.03,SSE,165,3.0,14.0,100,0.00,,,0.00,,2013-06-07 02:42:00,
2013-06-06 22:52:00,62.0,62.0,30.03,East,83,3.0,14.0,100,0.00,,,0.00,,2013-06-07 02:52:00,
2013-06-06 23:02:00,62.0,62.0,30.03,ESE,110,2.0,14.0,100,0.00,,,0.00,,2013-06-07 03:02:00,
2013-06-06 23:12:00,62.0,62.0,30.04,SE,144,1.0,14.0,100,0.00,,,0.00,,2013-06-07 03:12:00,
2013-06-06 23:22:00,62.0,62.0,30.04,SE,144,1.0,14.0,100,0.00,,,0.00,,2013-06-07 03:22:00,
2013-06-06 23:33:00,62.0,62.0,30.04,East,92,0.0,14.0,100,0.00,,,0.00,,2013-06-07 03:33:00,
2013-06-06 23:43:00,62.0,62.0,30.04,East,92,0.0,14.0,100,0.00,,,0.00,,2013-06-07 03:43:00,
2013-06-06 23:53:00,62.0,62.0,30.03,East,95,2.0,14.0,100,0.02,,,0.02,,2013-06-07 03:53:00,